O3B FM8

Last updated on Wed Jun 24 2026 00:03:25 GMT+0000 (Coordinated Universal Time)

1 40082U 14038D 26173.72910396 -.00000022 00000+0 00000+0 0 9999 2 40082 0.0468 349.0811 0002761 104.0818 266.8671 5.00116082218222
UTC large
Height (km)
Speed (km/s)
/
Latitude / Longitude
Inclination (degrees)
Orbital Period (minutes)
Azimuth
Elevation
Range (km)
Doppler Factor

Next 0 passes for location: London (51.5072 / 0.1276)

No passes found over London.
O3B FM8